Regional Weather Roundup
Issued by NWS

Home | Current Version | Previous Version | Graphics & Text | Print | Product List | Glossary On
Versions: 1 2 3 4 5 6 7 8 9 10 11 12 13 14 15 16 17 18 19 20 21 22 23 24 25 26 27 28 29 30 31 32 33 34 35 36 37 38 39 40 41 42 43 44 45 46 47 48 49 50
000
ASUS43 KTOP 292059
RWRKS

WEATHER ROUNDUP FOR KANSAS
NATIONAL WEATHER SERVICE GOODLAND KS
400 PM CDT WED JUL 29 2015

NOTE:  "FAIR" INDICATES FEW OR NO CLOUDS BELOW 12,000 FEET WITH NO
SIGNIFICANT WEATHER AND/OR OBSTRUCTIONS TO VISIBILITY.

KSZ001>006-013>018-027>032-041>047-292200-
NORTHWEST KANSAS

CITY           SKY/WX    TMP DP  RH WIND       PRES   REMARKS
GOODLAND       MOSUNNY   80  43  26 SE14G23   30.28F
HAYS           MOSUNNY   82  55  39 NE13      30.21F
HILL CITY      MOSUNNY   83  54  36 SE8       30.23F
RUSSELL        MOSUNNY   83  56  39 E15       30.20F
$$

KSZ061>065-074>080-084>089-292200-
SOUTHWEST KANSAS

CITY           SKY/WX    TMP DP  RH WIND       PRES   REMARKS
DODGE CITY     PTSUNNY   82  64  54 NE10G24   30.21F
ELKHART          N/A     81  63  54 E7          N/A
GARDEN CITY    MOSUNNY   79  62  56 NE6       30.22F
GREAT BEND     MOSUNNY   81  63  54 NE10      30.19S
LIBERAL        CLOUDY    82  64  54 NE9       30.19F
$$

KSZ066>073-081>083-090>101-292200-
SOUTHEAST KANSAS

CITY           SKY/WX    TMP DP  RH WIND       PRES   REMARKS
CHANUTE        SUNNY     90  72  55 NE12      30.09F HX  97
COFFEYVILLE    MOSUNNY  N/A N/A N/A MISG      30.04F
HUTCHINSON     LGT RAIN  78  68  71 N3        30.18R
MEDICINE LODGE   N/A     77  70  79 N9        30.12R
PARSONS        MOSUNNY   94  74  52 N10       30.07F HX 104
WICHITA INTL   CLOUDY    79  70  74 N14       30.13R
WICHITA JABRA  PTSUNNY   80  70  71 N14       30.13R
WINFIELD       MOSUNNY   95  70  44 E12       30.07F HX 101
$$

KSZ007>012-019>026-033>040-048>060-102>105-292200-
NORTHEAST KANSAS

CITY           SKY/WX    TMP DP  RH WIND       PRES   REMARKS
CONCORDIA      PTSUNNY   82  60  47 E8        30.20S
EMPORIA        CLOUDY    81  69  67 E13       30.13F
LAWRENCE       PTSUNNY   86  67  52 E8        30.13S
MANHATTAN      CLOUDY    82  71  69 E9        30.16R
OLATHE IND     PTSUNNY   85  69  58 NE8       30.14F
OLATHE EXE     PTSUNNY   85  64  49 NE10      30.13F
SALINA         PTSUNNY   82  70  66 N12       30.17F
TOPEKA BILLARD PTSUNNY   83  68  60 NE9       30.14R
TOPEKA FORBES  PTSUNNY   84  67  56 E6        30.14S
$$



USA.gov is the U.S. government's official web portal to all federal, state and local government web resources and services.